,,Stat5,,Stat1,,Stat2,,Stat3,,Stat4,,Wind1,,Wind1,
time,status,PA1M_AVG,status,PR1M_SUM,status,RH1M_AVG,status,SR1M_AVG,status,TA1M_AVG,status,W1dAve1m,status,W1sAve1m,
2001-03-27, 00:00:00,VALID,917.382,VALID,0,VALID,96.5618,VALID,-0.0679233,VALID,19.3931,VALID,140,VALID,0,
2001-03-27, 00:01:00,VALID,917.372,VALID,0,VALID,96.5822,VALID,-0.0339617,VALID,19.3963,VALID,140,VALID,0,
2001-03-27, 00:02:00,VALID,917.36,VALID,0,VALID,96.6508,VALID,-0.0169808,VALID,19.3996,VALID,140,VALID,0.368215,
2001-03-27, 00:03:00,VALID,917.343,VALID,0,VALID,96.7144,VALID,-0.0169808,VALID,19.3963,VALID,140,VALID,0.453331,
2001-03-27, 00:04:00,VALID,917.335,VALID,0,VALID,96.6839,VALID,-0.0509425,VALID,19.3837,VALID,157,VALID,0.0110677,
2001-03-27, 00:05:00,VALID,917.338,VALID,0,VALID,96.7233,VALID,-0.0509425,VALID,19.3712,VALID,282,VALID,0.103413,
2001-03-27, 00:06:00,VALID,917.332,VALID,0,VALID,96.6178,VALID,-0.0169808,VALID,19.3382,VALID,305,VALID,0,
2001-03-27, 00:07:00,VALID,917.323,VALID,0,VALID,96.5606,VALID,-0.0169808,VALID,19.3283,VALID,260,VALID,0.0349609,
2001-03-27, 00:08:00,VALID,917.285,VALID,0,VALID,96.5771,VALID,-0.0509425,VALID,19.3285,VALID,217,VALID,0.470353,
2001-03-27, 00:09:00,VALID,917.264,VALID,0,VALID,96.7373,VALID,-0.0169808,VALID,19.3417,VALID,205,VALID,0.0380859,
2001-03-27, 00:10:00,VALID,917.254,VALID,0,VALID,96.8454,VALID,0,VALID,19.3449,VALID,203,VALID,0.222852,
2001-03-27, 00:11:00,VALID,917.237,VALID,0,VALID,96.9497,VALID,-0.0169808,VALID,19.3285,VALID,194,VALID,0.272171,
2001-03-27, 00:12:00,VALID,917.231,VALID,0,VALID,96.9916,VALID,0,VALID,19.3022,VALID,175,VALID,0.326389,
2001-03-27, 00:13:00,VALID,917.233,VALID,0,VALID,97.1112,VALID,0,VALID,19.2699,VALID,173,VALID,0.483008,
2001-03-27, 00:14:00,VALID,917.214,VALID,0,VALID,97.2256,VALID,-0.0169808,VALID,19.2768,VALID,174,VALID,0.304253,
2001-03-27, 00:15:00,VALID,917.21,VALID,0,VALID,97.3083,VALID,-0.0339617,VALID,19.2572,VALID,174,VALID,0.0088141,
2001-03-27, 00:16:00,VALID,917.205,VALID,0,VALID,97.4125,VALID,-0.0509425,VALID,19.2478,VALID,174,VALID,0.136936,
2001-03-27, 00:17:00,VALID,917.191,VALID,0,VALID,97.5194,VALID,-0.0169808,VALID,19.2512,VALID,175,VALID,0.15,
2001-03-27, 00:18:00,VALID,917.198,VALID,0,VALID,97.5944,VALID,-0.0169808,VALID,19.245,VALID,175,VALID,0,
2001-03-27, 00:19:00,VALID,917.202,VALID,0,VALID,97.658,VALID,-0.0169808,VALID,19.241,VALID,175,VALID,0,
2001-03-27, 00:20:00,VALID,917.204,VALID,0,VALID,97.6758,VALID,-0.0169808,VALID,19.2318,VALID,172,VALID,0.193164,
2001-03-27, 00:21:00,VALID,917.192,VALID,0,VALID,97.7228,VALID,-0.0509425,VALID,19.2152,VALID,170,VALID,0.151042,
2001-03-27, 00:22:00,VALID,917.199,VALID,0,VALID,97.7317,VALID,-0.0339617,VALID,19.2025,VALID,168,VALID,0.0142228,
2001-03-27, 00:23:00,VALID,917.194,VALID,0,VALID,97.7304,VALID,-0.0339617,VALID,19.2,VALID,166,VALID,0.112132,
2001-03-27, 00:24:00,VALID,917.192,VALID,0,VALID,97.7444,VALID,0,VALID,19.1735,VALID,166,VALID,0,
2001-03-27, 00:25:00,VALID,917.192,VALID,0,VALID,97.7762,VALID,-0.0339617,VALID,19.17,VALID,169,VALID,0,
2001-03-27, 00:26:00,VALID,917.186,VALID,0,VALID,97.7978,VALID,-0.0169808,VALID,19.1631,VALID,286,VALID,0.114865,
2001-03-27, 00:27:00,VALID,917.188,VALID,0,VALID,97.761,VALID,-0.0169808,VALID,19.1705,VALID,291,VALID,0.0304276,
2001-03-27, 00:28:00,VALID,917.177,VALID,0,VALID,97.7622,VALID,-0.0509425,VALID,19.1608,VALID,260,VALID,0.015625,
2001-03-27, 00:29:00,VALID,917.169,VALID,0,VALID,97.8144,VALID,-0.0339617,VALID,19.1702,VALID,179,VALID,0.0270433,
2001-03-27, 00:30:00,VALID,917.148,VALID,0,VALID,97.8106,VALID,0,VALID,19.1832,VALID,166,VALID,0,
2001-03-27, 00:31:00,VALID,917.137,VALID,0,VALID,97.7826,VALID,0,VALID,19.1797,VALID,176,VALID,0,
2001-03-27, 00:32:00,VALID,917.138,VALID,0,VALID,97.7381,VALID,-0.0169808,VALID,19.1832,VALID,200,VALID,0,
2001-03-27, 00:33:00,VALID,917.113,VALID,0,VALID,97.7114,VALID,-0.0169808,VALID,19.1633,VALID,203,VALID,0,
2001-03-27, 00:34:00,VALID,917.115,VALID,0,VALID,97.7165,VALID,-0.0169808,VALID,19.1571,VALID,182,VALID,0,
2001-03-27, 00:35:00,VALID,917.094,VALID,0,VALID,97.7177,VALID,0,VALID,19.1538,VALID,166,VALID,0,
2001-03-27, 00:36:00,VALID,917.083,VALID,0,VALID,97.6554,VALID,0,VALID,19.1377,VALID,157,VALID,0,
2001-03-27, 00:37:00,VALID,917.061,VALID,0,VALID,97.5969,VALID,0.0169808,VALID,19.125,VALID,164,VALID,0,
2001-03-27, 00:38:00,VALID,917.042,VALID,0,VALID,97.602,VALID,0,VALID,19.1086,VALID,236,VALID,0,
2001-03-27, 00:39:00,VALID,917.023,VALID,0,VALID,97.5728,VALID,-0.0169808,VALID,19.0987,VALID,283,VALID,0.0799279,
2001-03-27, 00:40:00,VALID,916.996,VALID,0,VALID,97.6529,VALID,-0.0509425,VALID,19.1022,VALID,247,VALID,0.84734,
2001-03-27, 00:41:00,VALID,916.976,VALID,0,VALID,97.7254,VALID,-0.0339617,VALID,19.125,VALID,196,VALID,0.464433,
2001-03-27, 00:42:00,VALID,916.953,VALID,0,VALID,97.7864,VALID,-0.0339617,VALID,19.1474,VALID,207,VALID,0.161384,
2001-03-27, 00:43:00,VALID,916.951,VALID,0,VALID,97.7597,VALID,0,VALID,19.167,VALID,197,VALID,0.119391,
2001-03-27, 00:44:00,VALID,916.948,VALID,0,VALID,97.7673,VALID,0,VALID,19.1576,VALID,191,VALID,0,
2001-03-27, 00:45:00,VALID,916.931,VALID,0,VALID,97.8144,VALID,-0.0339617,VALID,19.1605,VALID,224,VALID,0.000868056,
2001-03-27, 00:46:00,VALID,916.918,VALID,0,VALID,97.8131,VALID,0,VALID,19.1571,VALID,233,VALID,0,
2001-03-27, 00:47:00,VALID,916.902,VALID,0,VALID,97.7915,VALID,-0.0339617,VALID,19.1645,VALID,216,VALID,0,
2001-03-27, 00:48:00,VALID,916.914,VALID,0,VALID,97.747,VALID,-0.0339617,VALID,19.1608,VALID,193,VALID,0,
2001-03-27, 00:49:00,VALID,916.912,VALID,0,VALID,97.7088,VALID,-0.0339617,VALID,19.158,VALID,193,VALID,0,
2001-03-27, 00:50:00,VALID,916.911,VALID,0,VALID,97.6389,VALID,-0.0169808,VALID,19.1546,VALID,195,VALID,0.215372,
2001-03-27, 00:51:00,VALID,916.909,VALID,0,VALID,97.6389,VALID,-0.0509425,VALID,19.1518,VALID,197,VALID,0.6142,
2001-03-27, 00:52:00,VALID,916.899,VALID,0,VALID,97.6198,VALID,-0.0339617,VALID,19.1511,VALID,196,VALID,0.283259,
2001-03-27, 00:53:00,VALID,916.888,VALID,0,VALID,97.5931,VALID,-0.0849042,VALID,19.1511,VALID,196,VALID,0.00841346,
2001-03-27, 00:54:00,VALID,916.879,VALID,0,VALID,97.6274,VALID,-0.0849042,VALID,19.1578,VALID,196,VALID,0,
2001-03-27, 00:55:00,VALID,916.867,VALID,0,VALID,97.6948,VALID,-0.0509425,VALID,19.161,VALID,197,VALID,0,
2001-03-27, 00:56:00,VALID,916.856,VALID,0,VALID,97.7597,VALID,-0.0339617,VALID,19.1576,VALID,208,VALID,0.0845982,
2001-03-27, 00:57:00,VALID,916.821,VALID,0,VALID,97.8525,VALID,-0.0679233,VALID,19.1677,VALID,210,VALID,0.433894,
2001-03-27, 00:58:00,VALID,916.807,VALID,0,VALID,97.9428,VALID,-0.0509425,VALID,19.1675,VALID,203,VALID,0.274858,
2001-03-27, 00:59:00,VALID,916.777,VALID,0,VALID,97.9441,VALID,-0.0679233,VALID,19.1543,VALID,164,VALID,0.332031,
2001-03-27, 01:00:00,VALID,916.757,VALID,0,VALID,97.911,VALID,-0.101885,VALID,19.1352,VALID,144,VALID,0.331209,
2001-03-27, 01:01:00,VALID,916.739,VALID,0,VALID,97.869,VALID,-0.0849042,VALID,19.1126,VALID,144,VALID,0.243189,
2001-03-27, 01:02:00,VALID,916.73,VALID,0,VALID,97.8182,VALID,-0.0339617,VALID,19.0962,VALID,145,VALID,0.0359375,
2001-03-27, 01:03:00,VALID,916.735,VALID,0,VALID,97.7826,VALID,-0.0509425,VALID,19.0803,VALID,146,VALID,0,
2001-03-27, 01:04:00,VALID,916.731,VALID,0,VALID,97.7101,VALID,-0.0339617,VALID,19.0671,VALID,146,VALID,0,
2001-03-27, 01:05:00,VALID,916.724,VALID,0,VALID,97.6274,VALID,-0.0339617,VALID,19.0408,VALID,150,VALID,0.0537684,
2001-03-27, 01:06:00,VALID,916.71,VALID,0,VALID,97.3629,VALID,-0.0339617,VALID,19.0187,VALID,155,VALID,0.0881696,
2001-03-27, 01:07:00,VALID,916.687,VALID,0,VALID,97.232,VALID,0,VALID,19.0125,VALID,160,VALID,0,
2001-03-27, 01:08:00,VALID,916.681,VALID,0,VALID,97.1213,VALID,0,VALID,18.9924,VALID,162,VALID,0,
2001-03-27, 01:09:00,VALID,916.679,VALID,0,VALID,97.0387,VALID,0,VALID,19.0058,VALID,162,VALID,0,
2001-03-27, 01:10:00,VALID,916.666,VALID,0,VALID,96.9713,VALID,0.0169808,VALID,19.009,VALID,162,VALID,0,
2001-03-27, 01:11:00,VALID,916.648,VALID,0,VALID,97.0222,VALID,0,VALID,19.0383,VALID,162,VALID,0,
2001-03-27, 01:12:00,VALID,916.637,VALID,0,VALID,96.9281,VALID,0,VALID,19.0217,VALID,162,VALID,0,
2001-03-27, 01:13:00,VALID,916.632,VALID,0,VALID,96.7996,VALID,0,VALID,19.0115,VALID,202,VALID,0.248264,
2001-03-27, 01:14:00,VALID,916.597,VALID,0,VALID,96.2923,VALID,-0.0169808,VALID,18.9926,VALID,208,VALID,0.158512,
2001-03-27, 01:15:00,VALID,916.591,VALID,0,VALID,96.0481,VALID,0,VALID,18.9896,VALID,201,VALID,0,
2001-03-27, 01:16:00,VALID,916.577,VALID,0,VALID,96.1905,VALID,0,VALID,19.0184,VALID,194,VALID,0,
2001-03-27, 01:17:00,VALID,916.558,VALID,0,VALID,96.1524,VALID,-0.0339617,VALID,19.0212,VALID,174,VALID,0.0125,
2001-03-27, 01:18:00,VALID,916.538,VALID,0,VALID,95.9896,VALID,0,VALID,19.0247,VALID,155,VALID,0,
2001-03-27, 01:19:00,VALID,916.524,VALID,0,VALID,95.8942,VALID,0,VALID,19.0113,VALID,155,VALID,0,
2001-03-27, 01:20:00,VALID,916.5,VALID,0,VALID,96.0557,VALID,0.0169808,VALID,19.0184,VALID,155,VALID,0,
2001-03-27, 01:21:00,VALID,916.479,VALID,0,VALID,96.1244,VALID,0.0169808,VALID,19.0058,VALID,155,VALID,0,
2001-03-27, 01:22:00,VALID,916.469,VALID,0,VALID,95.79,VALID,0,VALID,18.9601,VALID,155,VALID,0,
2001-03-27, 01:23:00,VALID,916.456,VALID,0,VALID,95.7022,VALID,0,VALID,18.9633,VALID,155,VALID,0,
2001-03-27, 01:24:00,VALID,916.441,VALID,0,VALID,95.8892,VALID,0,VALID,19.0023,VALID,155,VALID,0,
2001-03-27, 01:25:00,VALID,916.432,VALID,0,VALID,95.9248,VALID,0.0169808,VALID,19.0152,VALID,155,VALID,0,
2001-03-27, 01:26:00,VALID,916.421,VALID,0,VALID,95.5407,VALID,0.0169808,VALID,18.9958,VALID,149,VALID,0,
2001-03-27, 01:27:00,VALID,916.407,VALID,0,VALID,95.4301,VALID,0,VALID,18.9829,VALID,144,VALID,0,
2001-03-27, 01:28:00,VALID,916.401,VALID,0,VALID,95.0156,VALID,0,VALID,18.9735,VALID,144,VALID,0,
2001-03-27, 01:29:00,VALID,916.389,VALID,0,VALID,95.2673,VALID,0,VALID,18.9924,VALID,144,VALID,0,
2001-03-27, 01:30:00,VALID,916.363,VALID,0,VALID,95.5547,VALID,0,VALID,18.9931,VALID,145,VALID,0,
2001-03-27, 01:31:00,VALID,916.355,VALID,0,VALID,95.6234,VALID,0,VALID,18.9762,VALID,144,VALID,0,
2001-03-27, 01:32:00,VALID,916.329,VALID,0,VALID,95.3805,VALID,0.0169808,VALID,18.9506,VALID,144,VALID,0,
2001-03-27, 01:33:00,VALID,916.307,VALID,0,VALID,95.2254,VALID,0,VALID,18.9534,VALID,145,VALID,0,
2001-03-27, 01:34:00,VALID,916.284,VALID,0,VALID,95.4047,VALID,0,VALID,18.9571,VALID,145,VALID,0,
2001-03-27, 01:35:00,VALID,916.269,VALID,0,VALID,95.4238,VALID,0,VALID,18.9509,VALID,123,VALID,0,
2001-03-27, 01:36:00,VALID,916.237,VALID,0,VALID,95.4886,VALID,-0.0169808,VALID,18.9379,VALID,112,VALID,0,
2001-03-27, 01:37:00,VALID,916.231,VALID,0,VALID,95.8345,VALID,-0.0169808,VALID,18.9446,VALID,112,VALID,0,
2001-03-27, 01:38:00,VALID,916.214,VALID,0,VALID,96.0303,VALID,0,VALID,18.9347,VALID,112,VALID,0,
2001-03-27, 01:39:00,VALID,916.204,VALID,0,VALID,95.6501,VALID,0,VALID,18.8959,VALID,112,VALID,0,
2001-03-27, 01:40:00,VALID,916.187,VALID,0,VALID,95.3386,VALID,0,VALID,18.8701,VALID,112,VALID,0,
2001-03-27, 01:41:00,VALID,916.171,VALID,0,VALID,95.0448,VALID,0.0169808,VALID,18.8736,VALID,78,VALID,0,
2001-03-27, 01:42:00,VALID,916.181,VALID,0,VALID,95.0423,VALID,0,VALID,18.9188,VALID,355,VALID,0.432771,
2001-03-27, 01:43:00,VALID,916.19,VALID,0,VALID,95.598,VALID,0,VALID,18.9575,VALID,358,VALID,0.154247,
2001-03-27, 01:44:00,VALID,916.173,VALID,0,VALID,95.7391,VALID,-0.0169808,VALID,18.9642,VALID,110,VALID,0.191406,
2001-03-27, 01:45:00,VALID,916.161,VALID,0,VALID,95.7709,VALID,0,VALID,18.9605,VALID,135,VALID,0.116518,
2001-03-27, 01:46:00,VALID,916.156,VALID,0,VALID,95.7696,VALID,0,VALID,18.9608,VALID,135,VALID,0,
2001-03-27, 01:47:00,VALID,916.158,VALID,0,VALID,95.4199,VALID,0,VALID,18.9412,VALID,135,VALID,0.0165441,
2001-03-27, 01:48:00,VALID,916.143,VALID,0,VALID,94.6938,VALID,0,VALID,18.925,VALID,135,VALID,0.0102679,
2001-03-27, 01:49:00,VALID,916.145,VALID,0,VALID,94.69,VALID,0.0509425,VALID,18.9672,VALID,134,VALID,0.298109,
2001-03-27, 01:50:00,VALID,916.129,VALID,0,VALID,94.8909,VALID,0.0169808,VALID,18.9802,VALID,133,VALID,0.313767,
2001-03-27, 01:51:00,VALID,916.106,VALID,0,VALID,94.8248,VALID,0,VALID,18.9672,VALID,134,VALID,0.0345395,
2001-03-27, 01:52:00,VALID,916.117,VALID,0,VALID,94.4052,VALID,0,VALID,18.9575,VALID,139,VALID,0.0348214,
2001-03-27, 01:53:00,VALID,916.109,VALID,0,VALID,94.1585,VALID,0,VALID,18.9511,VALID,169,VALID,0.589343,
2001-03-27, 01:54:00,VALID,916.085,VALID,0,VALID,93.5125,VALID,0,VALID,18.9538,VALID,144,VALID,0.26018,
2001-03-27, 01:55:00,VALID,916.075,VALID,0,VALID,92.9378,VALID,0,VALID,18.9903,VALID,99,VALID,0,
2001-03-27, 01:56:00,VALID,916.056,VALID,0,VALID,92.8297,VALID,-0.0339617,VALID,19.0122,VALID,99,VALID,0,
2001-03-27, 01:57:00,VALID,916.047,VALID,0,VALID,92.9797,VALID,0,VALID,19.041,VALID,116,VALID,0.00200321,
2001-03-27, 01:58:00,VALID,916.032,VALID,0,VALID,92.9365,VALID,0,VALID,19.0768,VALID,172,VALID,0.0658203,
2001-03-27, 01:59:00,VALID,916.032,VALID,0,VALID,93.1476,VALID,-0.0169808,VALID,19.0867,VALID,205,VALID,0.103571,
2001-03-27, 02:00:00,VALID,916.005,VALID,0,VALID,93.557,VALID,-0.0339617,VALID,19.1066,VALID,194,VALID,0.0907939,
2001-03-27, 02:01:00,VALID,916.004,VALID,0,VALID,93.8482,VALID,-0.0169808,VALID,19.0773,VALID,178,VALID,0,
2001-03-27, 02:02:00,VALID,915.999,VALID,0,VALID,94.0034,VALID,0,VALID,19.0614,VALID,175,VALID,0,
2001-03-27, 02:03:00,VALID,915.995,VALID,0,VALID,94.5018,VALID,0,VALID,19.0544,VALID,173,VALID,0,
2001-03-27, 02:04:00,VALID,915.991,VALID,0,VALID,94.9698,VALID,0,VALID,19.0448,VALID,183,VALID,0,
2001-03-27, 02:05:00,VALID,915.975,VALID,0,VALID,95.2038,VALID,0,VALID,19.0189,VALID,226,VALID,0.134868,
2001-03-27, 02:06:00,VALID,915.973,VALID,0,VALID,95.5255,VALID,0,VALID,18.9898,VALID,223,VALID,0.169866,
2001-03-27, 02:07:00,VALID,915.951,VALID,0,VALID,95.8421,VALID,0.0509425,VALID,18.966,VALID,221,VALID,0.00600962,
2001-03-27, 02:08:00,VALID,915.948,VALID,0,VALID,95.9972,VALID,0,VALID,18.9338,VALID,221,VALID,0,
2001-03-27, 02:09:00,VALID,915.941,VALID,0,VALID,96.0901,VALID,0.0679233,VALID,18.9116,VALID,221,VALID,0,
2001-03-27, 02:10:00,VALID,915.933,VALID,0,VALID,96.1422,VALID,0.0339617,VALID,18.8888,VALID,221,VALID,0,
2001-03-27, 02:11:00,VALID,915.924,VALID,0,VALID,96.4423,VALID,0.0679233,VALID,18.8592,VALID,221,VALID,0,
2001-03-27, 02:12:00,VALID,915.913,VALID,0,VALID,96.6814,VALID,0.0509425,VALID,18.8565,VALID,221,VALID,0,
2001-03-27, 02:13:00,VALID,915.897,VALID,0,VALID,96.8746,VALID,0.0679233,VALID,18.8533,VALID,221,VALID,0,
2001-03-27, 02:14:00,VALID,915.885,VALID,0,VALID,96.8708,VALID,0.0679233,VALID,18.8339,VALID,220,VALID,0,
2001-03-27, 02:15:00,VALID,915.879,VALID,0,VALID,96.8556,VALID,0.0849042,VALID,18.8013,VALID,220,VALID,0,
2001-03-27, 02:16:00,VALID,915.873,VALID,0,VALID,96.8568,VALID,0.0339617,VALID,18.7817,VALID,220,VALID,0,
2001-03-27, 02:17:00,VALID,915.876,VALID,0,VALID,96.7221,VALID,0.0169808,VALID,18.7757,VALID,220,VALID,0,
2001-03-27, 02:18:00,VALID,915.872,VALID,0,VALID,96.6241,VALID,0.0339617,VALID,18.7559,VALID,220,VALID,0.00168919,
2001-03-27, 02:19:00,VALID,915.868,VALID,0,VALID,96.6216,VALID,0.0339617,VALID,18.7824,VALID,220,VALID,0,
2001-03-27, 02:20:00,VALID,915.881,VALID,0,VALID,96.4766,VALID,0.0509425,VALID,18.7723,VALID,220,VALID,0,
2001-03-27, 02:21:00,VALID,915.893,VALID,0,VALID,96.5784,VALID,0.0679233,VALID,18.7949,VALID,220,VALID,0,
2001-03-27, 02:22:00,VALID,915.87,VALID,0,VALID,96.5542,VALID,-0.0169808,VALID,18.809,VALID,220,VALID,0,
2001-03-27, 02:23:00,VALID,915.861,VALID,0,VALID,96.2897,VALID,-0.0509425,VALID,18.7903,VALID,220,VALID,0.0438368,
2001-03-27, 02:24:00,VALID,915.855,VALID,0,VALID,95.4733,VALID,-0.0679233,VALID,18.7575,VALID,193,VALID,0.0842928,
2001-03-27, 02:25:00,VALID,915.848,VALID,0,VALID,94.8019,VALID,-0.0679233,VALID,18.7742,VALID,178,VALID,0.303285,
2001-03-27, 02:26:00,VALID,915.835,VALID,0,VALID,94.5362,VALID,-0.0849042,VALID,18.8385,VALID,178,VALID,0.291211,
2001-03-27, 02:27:00,VALID,915.806,VALID,0,VALID,94.2335,VALID,-0.0679233,VALID,18.9038,VALID,178,VALID,0.333929,
2001-03-27, 02:28:00,VALID,915.788,VALID,0,VALID,94.1572,VALID,-0.0679233,VALID,18.9324,VALID,178,VALID,0.0177365,
2001-03-27, 02:29:00,VALID,915.772,VALID,0,VALID,93.9233,VALID,-0.0679233,VALID,18.9456,VALID,178,VALID,0,
2001-03-27, 02:30:00,VALID,915.743,VALID,0,VALID,93.215,VALID,-0.0849042,VALID,18.9486,VALID,178,VALID,0,
2001-03-27, 02:31:00,VALID,915.724,VALID,0,VALID,92.2333,VALID,-0.0849042,VALID,18.968,VALID,178,VALID,0.0875401,
2001-03-27, 02:32:00,VALID,915.691,VALID,0,VALID,91.8607,VALID,-0.0509425,VALID,19.0554,VALID,178,VALID,0.0122466,
2001-03-27, 02:33:00,VALID,915.663,VALID,0,VALID,91.5339,VALID,-0.0849042,VALID,19.1299,VALID,178,VALID,0,
2001-03-27, 02:34:00,VALID,915.645,VALID,0,VALID,90.8905,VALID,-0.0509425,VALID,19.1814,VALID,178,VALID,0,
2001-03-27, 02:35:00,VALID,915.628,VALID,0,VALID,90.3666,VALID,-0.0679233,VALID,19.2427,VALID,178,VALID,0,
2001-03-27, 02:36:00,VALID,915.622,VALID,0,VALID,91.1855,VALID,-0.0849042,VALID,19.3078,VALID,178,VALID,0,
2001-03-27, 02:37:00,VALID,915.605,VALID,0,VALID,90.289,VALID,0.0509425,VALID,19.3191,VALID,178,VALID,0,
2001-03-27, 02:38:00,VALID,915.603,VALID,0,VALID,90.9401,VALID,0.0169808,VALID,19.3382,VALID,178,VALID,0,
2001-03-27, 02:39:00,VALID,915.591,VALID,0,VALID,91.5326,VALID,0.0169808,VALID,19.3216,VALID,178,VALID,0,
2001-03-27, 02:40:00,VALID,915.56,VALID,0,VALID,91.2554,VALID,0.0169808,VALID,19.2964,VALID,179,VALID,0,
2001-03-27, 02:41:00,VALID,915.534,VALID,0,VALID,91.8277,VALID,0.0169808,VALID,19.2796,VALID,186,VALID,0.0716518,
2001-03-27, 02:42:00,VALID,915.529,VALID,0,VALID,91.8149,VALID,0.0169808,VALID,19.248,VALID,189,VALID,0,
2001-03-27, 02:43:00,VALID,915.53,VALID,0,VALID,92.4329,VALID,0,VALID,19.2254,VALID,189,VALID,0,
2001-03-27, 02:44:00,VALID,915.522,VALID,0,VALID,92.7712,VALID,0.0169808,VALID,19.1799,VALID,189,VALID,0,
2001-03-27, 02:45:00,VALID,915.521,VALID,0,VALID,93.1781,VALID,0.0169808,VALID,19.1511,VALID,189,VALID,0,
2001-03-27, 02:46:00,VALID,915.501,VALID,0,VALID,93.5278,VALID,0,VALID,19.1024,VALID,187,VALID,0.0916385,
2001-03-27, 02:47:00,VALID,915.474,VALID,0,VALID,93.7859,VALID,0.0509425,VALID,19.0311,VALID,182,VALID,0,
2001-03-27, 02:48:00,VALID,915.468,VALID,0,VALID,93.9525,VALID,0.0509425,VALID,18.9605,VALID,176,VALID,0.228348,
2001-03-27, 02:49:00,VALID,915.454,VALID,0,VALID,94.2221,VALID,0,VALID,18.892,VALID,158,VALID,0.321715,
2001-03-27, 02:50:00,VALID,915.446,VALID,0,VALID,94.0924,VALID,0.0169808,VALID,18.8244,VALID,153,VALID,0.399621,
2001-03-27, 02:51:00,VALID,915.435,VALID,0,VALID,93.894,VALID,0.0169808,VALID,18.7924,VALID,138,VALID,0.438368,
2001-03-27, 02:52:00,VALID,915.423,VALID,0,VALID,93.8546,VALID,0.0169808,VALID,18.7857,VALID,135,VALID,0.306743,
2001-03-27, 02:53:00,VALID,915.407,VALID,0,VALID,93.5812,VALID,0,VALID,18.7926,VALID,135,VALID,0.247196,
2001-03-27, 02:54:00,VALID,915.392,VALID,0,VALID,93.9309,VALID,0.0169808,VALID,18.809,VALID,135,VALID,0.125,
2001-03-27, 02:55:00,VALID,915.38,VALID,0,VALID,93.9118,VALID,0,VALID,18.7954,VALID,135,VALID,0.021875,
2001-03-27, 02:56:00,VALID,915.379,VALID,0,VALID,93.4833,VALID,0,VALID,18.7829,VALID,136,VALID,0,
2001-03-27, 02:57:00,VALID,915.39,VALID,0,VALID,93.2417,VALID,0.0169808,VALID,18.7921,VALID,127,VALID,0.22909,
2001-03-27, 02:58:00,VALID,915.382,VALID,0,VALID,92.7089,VALID,0.0339617,VALID,18.8475,VALID,123,VALID,0.0462054,
2001-03-27, 02:59:00,VALID,915.371,VALID,0,VALID,92.4317,VALID,0.0169808,VALID,18.9215,VALID,124,VALID,0.183694,
2001-03-27, 03:00:00,VALID,915.368,VALID,0,VALID,92.7178,VALID,0,VALID,18.9633,VALID,112,VALID,0.342483,
2001-03-27, 03:01:00,VALID,915.359,VALID,0,VALID,92.5461,VALID,0.0169808,VALID,18.9735,VALID,100,VALID,0.464021,
2001-03-27, 03:02:00,VALID,915.335,VALID,0,VALID,92.878,VALID,0,VALID,18.9802,VALID,123,VALID,0.621652,
2001-03-27, 03:03:00,VALID,915.311,VALID,0,VALID,92.9619,VALID,0.0339617,VALID,18.9506,VALID,121,VALID,0.726362,
2001-03-27, 03:04:00,VALID,915.306,VALID,0,VALID,93.1399,VALID,0,VALID,18.9315,VALID,123,VALID,0.44768,
2001-03-27, 03:05:00,VALID,915.308,VALID,0,VALID,93.4515,VALID,0.0339617,VALID,18.8925,VALID,123,VALID,0.345703,
2001-03-27, 03:06:00,VALID,915.303,VALID,0,VALID,93.4261,VALID,0.0339617,VALID,18.8281,VALID,109,VALID,0.262747,
2001-03-27, 03:07:00,VALID,915.302,VALID,0,VALID,93.3485,VALID,0,VALID,18.806,VALID,104,VALID,0.254407,
2001-03-27, 03:08:00,VALID,915.309,VALID,0,VALID,93.5176,VALID,-0.0169808,VALID,18.8159,VALID,83,VALID,0.247852,
2001-03-27, 03:09:00,VALID,915.295,VALID,0,VALID,93.5481,VALID,0,VALID,18.8226,VALID,74,VALID,0.255357,
2001-03-27, 03:10:00,VALID,915.273,VALID,0,VALID,93.9741,VALID,0,VALID,18.7938,VALID,82,VALID,0.198691,
2001-03-27, 03:11:00,VALID,915.262,VALID,0,VALID,94.3531,VALID,0,VALID,18.7317,VALID,99,VALID,0.507583,
2001-03-27, 03:12:00,VALID,915.246,VALID,0,VALID,94.5196,VALID,0,VALID,18.6609,VALID,101,VALID,0.622768,
2001-03-27, 03:13:00,VALID,915.242,VALID,0,VALID,94.479,VALID,-0.0169808,VALID,18.6316,VALID,101,VALID,0.433293,
2001-03-27, 03:14:00,VALID,915.238,VALID,0,VALID,94.6862,VALID,0,VALID,18.6164,VALID,101,VALID,0.209459,
2001-03-27, 03:15:00,VALID,915.236,VALID,0,VALID,94.8108,VALID,-0.0169808,VALID,18.5767,VALID,101,VALID,0.0304276,
2001-03-27, 03:16:00,VALID,915.23,VALID,0,VALID,94.9024,VALID,0,VALID,18.5839,VALID,101,VALID,0.05625,
2001-03-27, 03:17:00,VALID,915.233,VALID,0,VALID,94.9266,VALID,-0.0339617,VALID,18.5871,VALID,101,VALID,0,
2001-03-27, 03:18:00,VALID,915.214,VALID,0,VALID,95.0677,VALID,0,VALID,18.5769,VALID,101,VALID,0.347775,
2001-03-27, 03:19:00,VALID,915.22,VALID,0,VALID,95.1974,VALID,0,VALID,18.5446,VALID,101,VALID,0.302517,
2001-03-27, 03:20:00,VALID,915.208,VALID,0,VALID,95.3945,VALID,-0.0169808,VALID,18.496,VALID,101,VALID,0.0657895,
2001-03-27, 03:21:00,VALID,915.21,VALID,0,VALID,95.5751,VALID,0,VALID,18.484,VALID,97,VALID,0.146835,
2001-03-27, 03:22:00,VALID,915.214,VALID,0,VALID,95.5878,VALID,-0.0169808,VALID,18.4872,VALID,298,VALID,0.430664,
2001-03-27, 03:23:00,VALID,915.22,VALID,0,VALID,95.4644,VALID,-0.0339617,VALID,18.5225,VALID,295,VALID,0.277232,
2001-03-27, 03:24:00,VALID,915.204,VALID,0,VALID,95.617,VALID,-0.0169808,VALID,18.5421,VALID,247,VALID,0.385557,
2001-03-27, 03:25:00,VALID,915.184,VALID,0,VALID,95.7327,VALID,-0.0339617,VALID,18.5516,VALID,241,VALID,0.0769761,
2001-03-27, 03:26:00,VALID,915.169,VALID,0,VALID,95.7073,VALID,-0.0169808,VALID,18.5419,VALID,241,VALID,0.0953125,
2001-03-27, 03:27:00,VALID,915.156,VALID,0,VALID,95.7175,VALID,-0.0169808,VALID,18.5354,VALID,257,VALID,0.160657,
2001-03-27, 03:28:00,VALID,915.157,VALID,0,VALID,95.4721,VALID,0.0169808,VALID,18.5287,VALID,277,VALID,0.235008,
2001-03-27, 03:29:00,VALID,915.146,VALID,0,VALID,95.0461,VALID,0,VALID,18.5606,VALID,277,VALID,0.161184,
2001-03-27, 03:30:00,VALID,915.137,VALID,0,VALID,94.5909,VALID,-0.0169808,VALID,18.6385,VALID,277,VALID,0.0154018,
2001-03-27, 03:31:00,VALID,915.12,VALID,0,VALID,94.4192,VALID,0,VALID,18.6676,VALID,277,VALID,0,
2001-03-27, 03:32:00,VALID,915.091,VALID,0,VALID,94.395,VALID,0,VALID,18.6581,VALID,277,VALID,0,
2001-03-27, 03:33:00,VALID,915.074,VALID,0,VALID,94.2488,VALID,-0.0169808,VALID,18.6711,VALID,305,VALID,0.0809462,
2001-03-27, 03:34:00,VALID,915.061,VALID,0,VALID,93.276,VALID,0,VALID,18.7702,VALID,20,VALID,0.403166,
2001-03-27, 03:35:00,VALID,915.069,VALID,0,VALID,92.7953,VALID,0,VALID,18.9098,VALID,31,VALID,0.713341,
2001-03-27, 03:36:00,VALID,915.059,VALID,0,VALID,92.8017,VALID,-0.0339617,VALID,18.9481,VALID,42,VALID,0.306836,
2001-03-27, 03:37:00,VALID,915.03,VALID,0,VALID,92.4724,VALID,-0.0509425,VALID,18.9747,VALID,58,VALID,0.0270089,
2001-03-27, 03:38:00,VALID,915.018,VALID,0,VALID,92.6059,VALID,-0.0169808,VALID,18.9456,VALID,53,VALID,0.131546,
2001-03-27, 03:39:00,VALID,915.015,VALID,0,VALID,93.1272,VALID,-0.0339617,VALID,18.916,VALID,19,VALID,0.290671,